CZ-6A DEB, 54265

Orbit data source: Space-Track

CZ-6A DEB, 54265 is space debris in SSO originally from a launch on Fri, 11 Nov 2022 UTC launched from the Taiyaun Space Center, China (TSC). Debris objects in space refer to the collection of defunct objects orbiting the Earth. Examples of debris include non-operational satellites, rocket bodies, and fragments generated from explosions, collisions, or faulty payload assembly.

Loading next visibility...
Identifier
54265, 2022-151G
Orbit
SSO
Country
Flag of CNCN / PRC
Related business
Manufacturer
SAST
Mission
Spacecraft
Bus & Motor
Unknown
Mass
Unknown
Launch date (UTC)
2022-11-11 (3 years ago)
Launch vehicle
Unknown
Launch site
Taiyaun Space Center, China (TSC)
Object type
Payload
Rocket body
Debris
Shape & HBR
Unknown shape, 0.2 m
Radar Cross Section
Medium (>0.1 m² and <1 m²)

Expand to show TLE details & history
Last TLE update: 14 hours ago

TLE from 14 hours ago
0 CZ-6A DEB
1 54265U 22151G   25355.25700513  .00000141  00000-0  21441-3 0  9997
2 54265  99.0656 254.9364 0378129 125.4268 238.2790 13.39554497151851
Epoch: 2025-12-21T06:10Z
TLE epoch observation values (Epoch: 2025-12-21T06:10:05.243Z)
Latitude
-0.00002°
Longitude
72.3425°
Altitude
1,270.181 km
Speed
7.145 km/s
True Right ascension
16h 59m 44s
True Declination
0° 00' 00"
Sunlit
Object was in daylight at epoch
Visualization orbit readout
Latitude
Unknown
Longitude
Unknown
Altitude
Unknown
Speed
Unknown
Apparent Right ascension
Unknown
Apparent Declination
Unknown
Sunlit
N/A
Visualization observer readout
Local Sidereal Time
19:29:43
Azimuth
Unknown
Elevation
Unknown
Doppler factor
Unknown
Orbital elements
Apogee altitude
1,391.298 km
Perigee altitude
825.137 km
Semi-major axis
7,486.354 km
Eccentricity
0.03781
Inclination
99.0656°
RAAN
254.9364°
Arg. of periapsis
125.4268°
True anomaly
234.68505°
Mean anomaly
238.279°
Eccentric anomaly
236.47294°
Mean motion
3.35072 °/min
Orbital period
107.44 mins
BSTAR
0.00021441
Loading maneuver chart data...
Computing Atmospheric mass density...
Loading historical data...
Loading historical data...
Loading historical data...
Loading historical data...
Loading historical data...
Loading historical data...
Loading historical data...

Documentation

Showing up to 5 results
|